Location: Rounton
(54.4000°N, 1.3500°W)
Time: 15:10:09
(UTC+00:00)

Transit 2A - Pass Details

Date: 04 December 2021
Orbit: 591 x 967 km, 66.7° (Epoch: 21 January)

Event Time Altitude Azimuth Distance (km) Brightness Sun altitude
Rises 02:03:32 0° 245° (WSW) 3,411 - -49.9°
Reaches altitude 10° 02:06:00 10° 251° (WSW) 2,529 - -49.6°
Maximum altitude 02:11:45 49° 325° (NW) 1,184 - -49.0°
Exits shadow 02:17:20 13° 38° (NE) 2,503 9.1 -48.3°
Drops below altitude 10° 02:17:55 10° 40° (NE) 2,701 9.3 -48.2°
Sets 02:20:38 0° 46° (NE) 3,663 10.2 -47.9°
